17-12-2022, 00:00:04,    185,    0.0,   -4.1,   0.00,   0.00, 1016.8,   89.1, -999.0
17-12-2022, 00:00:14,    185,    0.0,   -4.1,   0.00,   0.00, 1016.7,   88.7, -999.0
17-12-2022, 00:00:24,    185,    0.0,   -4.2,   0.00,   0.00, 1016.8,   88.5, -999.0
17-12-2022, 00:00:35,    191,    0.0,   -4.2,   0.00,   0.00, 1016.8,   88.4, -999.0
17-12-2022, 00:00:44,    185,    0.0,   -4.0,   0.00,   0.00, 1016.7,   88.3, -999.0
17-12-2022, 00:00:54,    185,    0.0,   -4.1,   0.00,   0.00, 1016.8,   88.3, -999.0
17-12-2022, 00:01:04,    185,    0.0,   -4.1,   0.00,   0.00, 1016.8,   88.4, -999.0
17-12-2022, 00:01:14,    185,    0.0,   -4.2,   0.00,   0.00, 1016.8,   88.2, -999.0
17-12-2022, 00:01:24,    185,    0.0,   -4.1,   0.00,   0.00, 1016.8,   88.2, -999.0
17-12-2022, 00:01:34,    185,    0.0,   -4.0,   0.00,   0.00, 1016.8,   88.1, -999.0
17-12-2022, 00:01:44,    184,    0.0,   -4.2,   0.00,   0.00, 1016.8,   88.0, -999.0
17-12-2022, 00:01:54,    185,    0.0,   -4.1,   0.00,   0.00, 1016.8,   88.0, -999.0
17-12-2022, 00:02:04,    185,    0.0,   -4.1,   0.00,   0.00, 1016.8,   87.9, -999.0
17-12-2022, 00:02:14,    185,    0.0,   -4.1,   0.00,   0.00, 1016.7,   87.9, -999.0
17-12-2022, 00:02:24,    185,    0.0,   -4.2,   0.00,   0.00, 1016.8,   87.9, -999.0
17-12-2022, 00:02:34,    185,    0.0,   -4.1,   0.00,   0.00, 1016.8,   87.7, -999.0
17-12-2022, 00:02:44,    185,    0.0,   -4.2,   0.00,   0.00, 1016.8,   87.4, -999.0
17-12-2022, 00:02:54,    185,    0.0,   -4.1,   0.00,   0.00, 1016.7,   87.3, -999.0
17-12-2022, 00:03:04,    185,    0.0,   -4.1,   0.00,   0.00, 1016.7,   87.3, -999.0
17-12-2022, 00:03:14,    185,    0.0,   -4.2,   0.00,   0.00, 1016.8,   87.2, -999.0
17-12-2022, 00:03:24,    184,    0.0,   -4.2,   0.00,   0.00, 1016.7,   87.0, -999.0
17-12-2022, 00:03:34,    185,    0.0,   -4.1,   0.00,   0.00, 1016.8,   86.9, -999.0
17-12-2022, 00:03:44,    185,    0.0,   -4.1,   0.00,   0.00, 1016.7,   86.7, -999.0
17-12-2022, 00:03:54,    185,    0.0,   -4.2,   0.00,   0.00, 1016.7,   86.6, -999.0
17-12-2022, 00:04:04,    185,    0.0,   -4.1,   0.00,   0.00, 1016.7,   86.5, -999.0
17-12-2022, 00:04:14,    185,    0.0,   -4.1,   0.00,   0.00, 1016.7,   86.4, -999.0
17-12-2022, 00:04:24,    185,    0.0,   -4.1,   0.00,   0.00, 1016.8,   86.5, -999.0
17-12-2022, 00:04:34,    185,    0.0,   -4.1,   0.00,   0.00, 1016.7,   86.5, -999.0
17-12-2022, 00:04:44,    185,    0.0,   -4.1,   0.00,   0.00, 1016.7,   86.5, -999.0
17-12-2022, 00:04:54,    185,    0.0,   -4.2,   0.00,   0.00, 1016.8,   86.3, -999.0
17-12-2022, 00:05:04,    185,    0.0,   -4.2,   0.00,   0.00, 1016.8,   86.2, -999.0
17-12-2022, 00:05:14,    185,    0.0,   -4.2,   0.00,   0.00, 1016.7,   86.2, -999.0
17-12-2022, 00:05:24,    185,    0.0,   -4.2,   0.00,   0.00, 1016.7,   86.1, -999.0
17-12-2022, 00:05:34,    185,    0.0,   -4.2,   0.00,   0.00, 1016.8,   86.0, -999.0
17-12-2022, 00:05:44,    185,    0.0,   -4.2,   0.00,   0.00, 1016.7,   86.0, -999.0
17-12-2022, 00:05:54,    185,    0.0,   -4.2,   0.00,   0.00, 1016.7,   85.9, -999.0
17-12-2022, 00:06:04,    185,    0.0,   -4.2,   0.00,   0.00, 1016.7,   86.0, -999.0
17-12-2022, 00:06:14,    185,    0.0,   -4.1,   0.00,   0.00, 1016.7,   86.1, -999.0
17-12-2022, 00:06:23,    185,    0.0,   -4.0,   0.00,   0.00, 1016.8,   86.2, -999.0
17-12-2022, 00:06:34,    185,    0.0,   -4.1,   0.00,   0.00, 1016.7,   86.3, -999.0
17-12-2022, 00:06:44,    185,    0.0,   -4.2,   0.00,   0.00, 1016.8,   86.4, -999.0
17-12-2022, 00:06:53,    185,    0.0,   -4.1,   0.00,   0.00, 1016.7,   86.4, -999.0
17-12-2022, 00:07:04,    185,    0.0,   -4.1,   0.00,   0.00, 1016.8,   86.3, -999.0
17-12-2022, 00:07:14,    185,    0.0,   -4.2,   0.00,   0.00, 1016.8,   86.2, -999.0
17-12-2022, 00:07:24,    185,    0.0,   -4.1,   0.00,   0.00, 1016.8,   86.2, -999.0
17-12-2022, 00:07:33,    185,    0.0,   -4.2,   0.00,   0.00, 1016.8,   86.1, -999.0
17-12-2022, 00:07:44,    185,    0.0,   -4.1,   0.00,   0.00, 1016.8,   85.9, -999.0
17-12-2022, 00:07:54,    185,    0.0,   -4.2,   0.00,   0.00, 1016.8,   85.9, -999.0
17-12-2022, 00:08:03,    185,    0.0,   -4.1,   0.00,   0.00, 1016.8,   85.9, -999.0
17-12-2022, 00:08:13,    185,    0.0,   -4.2,   0.00,   0.00, 1016.8,   86.0, -999.0
17-12-2022, 00:08:24,    185,    0.0,   -4.1,   0.00,   0.00, 1016.8,   85.8, -999.0
17-12-2022, 00:08:34,    185,    0.0,   -4.2,   0.00,   0.00, 1016.8,   85.9, -999.0
17-12-2022, 00:08:43,    185,    0.0,   -4.2,   0.00,   0.00, 1016.8,   85.9, -999.0
17-12-2022, 00:08:53,    185,    0.0,   -4.2,   0.00,   0.00, 1016.8,   85.7, -999.0
17-12-2022, 00:09:04,    185,    0.0,   -4.2,   0.00,   0.00, 1016.8,   85.6, -999.0
17-12-2022, 00:09:13,    186,    0.2,   -4.1,   0.00,   0.00, 1016.9,   85.7, -999.0
17-12-2022, 00:09:23,    185,    0.2,   -4.2,   0.00,   0.00, 1016.8,   85.7, -999.0
17-12-2022, 00:09:33,    185,    0.0,   -4.2,   0.00,   0.00, 1016.8,   85.7, -999.0
17-12-2022, 00:09:43,    185,    0.0,   -4.2,   0.00,   0.00, 1016.8,   85.7, -999.0
17-12-2022, 00:09:53,    185,    0.0,   -4.2,   0.00,   0.00, 1016.8,   85.8, -999.0
17-12-2022, 00:10:03,    185,    0.0,   -4.2,   0.00,   0.00, 1016.8,   85.9, -999.0
17-12-2022, 00:10:13,    185,    0.0,   -4.3,   0.00,   0.00, 1016.8,   85.9, -999.0
17-12-2022, 00:10:23,    185,    0.3,   -4.2,   0.00,   0.00, 1016.9,   86.0, -999.0
17-12-2022, 00:10:33,    185,    0.3,   -4.1,   0.00,   0.00, 1016.9,   86.0, -999.0
17-12-2022, 00:10:43,    185,    0.0,   -4.3,   0.00,   0.00, 1016.8,   85.8, -999.0
17-12-2022, 00:10:53,    184,    0.0,   -4.2,   0.00,   0.00, 1016.8,   85.9, -999.0
17-12-2022, 00:11:03,    185,    0.0,   -4.2,   0.00,   0.00, 1016.8,   85.8, -999.0
17-12-2022, 00:11:13,    185,    0.0,   -4.2,   0.00,   0.00, 1016.8,   85.9, -999.0
17-12-2022, 00:11:23,    185,    0.0,   -4.2,   0.00,   0.00, 1016.8,   85.8, -999.0
17-12-2022, 00:11:33,    185,    0.0,   -4.2,   0.00,   0.00, 1016.8,   85.7, -999.0
17-12-2022, 00:11:43,    185,    0.0,   -4.3,   0.00,   0.00, 1016.8,   85.8, -999.0
17-12-2022, 00:11:53,    185,    0.0,   -4.2,   0.00,   0.00, 1016.8,   85.8, -999.0
17-12-2022, 00:12:03,    185,    0.0,   -4.3,   0.00,   0.00, 1016.8,   86.0, -999.0
17-12-2022, 00:12:13,    185,    0.0,   -4.3,   0.00,   0.00, 1016.8,   86.1, -999.0
17-12-2022, 00:12:23,    185,    0.0,   -4.2,   0.00,   0.00, 1016.7,   86.2, -999.0
17-12-2022, 00:12:33,    185,    0.0,   -4.2,   0.00,   0.00, 1016.7,   86.2, -999.0
17-12-2022, 00:12:43,    185,    0.0,   -4.2,   0.00,   0.00, 1016.8,   86.3, -999.0
17-12-2022, 00:12:53,    185,    0.0,   -4.2,   0.00,   0.00, 1016.7,   86.3, -999.0
17-12-2022, 00:13:03,    187,    0.0,   -4.2,   0.00,   0.00, 1016.7,   86.3, -999.0
17-12-2022, 00:13:13,    185,    0.0,   -4.2,   0.00,   0.00, 1016.7,   86.2, -999.0
17-12-2022, 00:13:23,    185,    0.0,   -4.2,   0.00,   0.00, 1016.7,   85.9, -999.0
17-12-2022, 00:13:33,    185,    0.0,   -4.2,   0.00,   0.00, 1016.8,   85.9, -999.0
17-12-2022, 00:13:43,    185,    0.0,   -4.3,   0.00,   0.00, 1016.8,   85.8, -999.0
17-12-2022, 00:13:53,    185,    0.0,   -4.2,   0.00,   0.00, 1016.7,   85.8, -999.0
17-12-2022, 00:14:03,    185,    0.0,   -4.2,   0.00,   0.00, 1016.7,   85.8, -999.0
17-12-2022, 00:14:13,    190,    0.0,   -4.3,   0.00,   0.00, 1016.8,   85.9, -999.0
17-12-2022, 00:14:23,    190,    0.0,   -4.3,   0.00,   0.00, 1016.8,   85.9, -999.0
17-12-2022, 00:14:33,    190,    0.0,   -4.2,   0.00,   0.00, 1016.8,   85.9, -999.0
17-12-2022, 00:14:42,    190,    0.0,   -4.3,   0.00,   0.00, 1016.8,   85.9, -999.0
17-12-2022, 00:14:53,    190,    0.0,   -4.3,   0.00,   0.00, 1016.8,   85.9, -999.0
17-12-2022, 00:15:03,    190,    0.0,   -4.1,   0.00,   0.00, 1016.8,   86.0, -999.0
17-12-2022, 00:15:12,    190,    0.0,   -4.2,   0.00,   0.00, 1016.8,   86.0, -999.0
17-12-2022, 00:15:22,    190,    0.0,   -4.1,   0.00,   0.00, 1016.8,   85.9, -999.0
17-12-2022, 00:15:33,    190,    0.0,   -4.1,   0.00,   0.00, 1016.8,   86.0, -999.0
17-12-2022, 00:15:43,    170,    0.0,   -4.2,   0.00,   0.00, 1016.8,   86.1, -999.0
17-12-2022, 00:15:52,    170,    0.0,   -4.2,   0.00,   0.00, 1016.8,   86.2, -999.0
17-12-2022, 00:16:02,    171,    0.0,   -4.2,   0.00,   0.00, 1016.7,   86.3, -999.0
17-12-2022, 00:16:13,    170,    0.0,   -4.1,   0.00,   0.00, 1016.8,   86.3, -999.0
17-12-2022, 00:16:22,    171,    0.0,   -4.1,   0.00,   0.00, 1016.8,   86.4, -999.0
17-12-2022, 00:16:32,    170,    0.0,   -4.2,   0.00,   0.00, 1016.8,   86.2, -999.0
17-12-2022, 00:16:42,    170,    0.0,   -4.1,   0.00,   0.00, 1016.8,   85.8, -999.0
17-12-2022, 00:16:53,    171,    0.0,   -4.2,   0.00,   0.00, 1016.8,   85.6, -999.0
17-12-2022, 00:17:02,    171,    0.0,   -4.1,   0.00,   0.00, 1016.8,   85.5, -999.0
17-12-2022, 00:17:12,    171,    0.0,   -4.1,   0.00,   0.00, 1016.8,   85.4, -999.0
17-12-2022, 00:17:22,    170,    0.0,   -4.2,   0.00,   0.00, 1016.8,   85.3, -999.0
17-12-2022, 00:17:32,    171,    0.0,   -4.2,   0.00,   0.00, 1016.8,   85.3, -999.0
17-12-2022, 00:17:42,    171,    0.0,   -4.2,   0.00,   0.00, 1016.8,   85.3, -999.0
17-12-2022, 00:17:52,    171,    0.0,   -4.1,   0.00,   0.00, 1016.8,   85.3, -999.0
17-12-2022, 00:18:02,    170,    0.0,   -4.1,   0.00,   0.00, 1016.8,   85.4, -999.0
17-12-2022, 00:18:12,    171,    0.0,   -4.2,   0.00,   0.00, 1016.8,   85.3, -999.0
17-12-2022, 00:18:22,    171,    0.0,   -4.1,   0.00,   0.00, 1016.8,   85.4, -999.0
17-12-2022, 00:18:32,    171,    0.0,   -4.2,   0.00,   0.00, 1016.7,   85.6, -999.0
17-12-2022, 00:18:42,    171,    0.0,   -4.1,   0.00,   0.00, 1016.8,   85.5, -999.0
17-12-2022, 00:18:52,    171,    0.0,   -4.1,   0.00,   0.00, 1016.8,   85.5, -999.0
17-12-2022, 00:19:02,    171,    0.0,   -4.1,   0.00,   0.00, 1016.7,   85.5, -999.0
17-12-2022, 00:19:12,    171,    0.0,   -4.2,   0.00,   0.00, 1016.8,   85.5, -999.0
17-12-2022, 00:19:22,    170,    0.0,   -4.1,   0.00,   0.00, 1016.8,   85.5, -999.0
17-12-2022, 00:19:32,    171,    0.0,   -4.2,   0.00,   0.00, 1016.8,   85.4, -999.0
17-12-2022, 00:19:42,    174,    0.2,   -4.1,   0.00,   0.00, 1016.8,   85.5, -999.0
17-12-2022, 00:19:52,    174,    0.0,   -4.1,   0.00,   0.00, 1016.8,   85.5, -999.0
17-12-2022, 00:20:02,    174,    0.0,   -4.0,   0.00,   0.00, 1016.8,   85.5, -999.0
17-12-2022, 00:20:12,    173,    0.0,   -4.1,   0.00,   0.00, 1016.7,   85.4, -999.0
17-12-2022, 00:20:22,    174,    0.0,   -4.1,   0.00,   0.00, 1016.8,   85.4, -999.0
17-12-2022, 00:20:32,    173,    0.0,   -4.1,   0.00,   0.00, 1016.7,   85.3, -999.0
17-12-2022, 00:20:42,    174,    0.0,   -4.1,   0.00,   0.00, 1016.8,   85.2, -999.0
17-12-2022, 00:20:52,    173,    0.0,   -4.2,   0.00,   0.00, 1016.8,   85.2, -999.0
17-12-2022, 00:21:02,    173,    0.0,   -4.1,   0.00,   0.00, 1016.8,   85.0, -999.0
17-12-2022, 00:21:12,    159,    0.0,   -4.1,   0.00,   0.00, 1016.8,   85.1, -999.0
17-12-2022, 00:21:22,    159,    0.0,   -4.2,   0.00,   0.00, 1016.8,   85.3, -999.0
17-12-2022, 00:21:32,    159,    0.0,   -4.0,   0.00,   0.00, 1016.9,   85.5, -999.0
17-12-2022, 00:21:42,    159,    0.0,   -4.0,   0.00,   0.00, 1016.8,   85.3, -999.0
17-12-2022, 00:21:52,    159,    0.0,   -4.1,   0.00,   0.00, 1016.8,   85.3, -999.0
17-12-2022, 00:22:02,    160,    0.0,   -4.1,   0.00,   0.00, 1016.8,   85.3, -999.0
17-12-2022, 00:22:12,    160,    0.0,   -4.1,   0.00,   0.00, 1016.7,   85.4, -999.0
17-12-2022, 00:22:21,    159,    0.0,   -4.1,   0.00,   0.00, 1016.8,   85.3, -999.0
17-12-2022, 00:22:32,    160,    0.0,   -4.1,   0.00,   0.00, 1016.8,   85.2, -999.0
17-12-2022, 00:22:42,    159,    0.0,   -4.1,   0.00,   0.00, 1016.8,   85.0, -999.0
17-12-2022, 00:22:52,    159,    0.0,   -4.1,   0.00,   0.00, 1016.8,   85.0, -999.0
17-12-2022, 00:23:01,    160,    0.0,   -4.1,   0.00,   0.00, 1016.8,   84.9, -999.0
17-12-2022, 00:23:12,    159,    0.0,   -4.1,   0.00,   0.00, 1016.8,   84.9, -999.0
17-12-2022, 00:23:22,    159,    0.0,   -4.1,   0.00,   0.00, 1016.8,   84.9, -999.0
17-12-2022, 00:23:31,    159,    0.0,   -4.2,   0.00,   0.00, 1016.8,   84.8, -999.0
17-12-2022, 00:23:41,    159,    0.0,   -4.1,   0.00,   0.00, 1016.8,   84.9, -999.0
17-12-2022, 00:23:52,    160,    0.0,   -4.1,   0.00,   0.00, 1016.8,   85.0, -999.0
17-12-2022, 00:24:01,    161,    0.0,   -4.1,   0.00,   0.00, 1016.8,   85.1, -999.0
17-12-2022, 00:24:11,    162,    0.0,   -4.1,   0.00,   0.00, 1016.8,   85.1, -999.0
17-12-2022, 00:24:21,    162,    0.0,   -4.0,   0.00,   0.00, 1016.8,   85.2, -999.0
17-12-2022, 00:24:32,    162,    0.0,   -4.1,   0.00,   0.00, 1016.8,   85.2, -999.0
17-12-2022, 00:24:41,    165,    0.0,   -4.1,   0.00,   0.00, 1016.8,   85.1, -999.0
17-12-2022, 00:24:51,    166,    0.0,   -4.0,   0.00,   0.00, 1016.8,   85.2, -999.0
17-12-2022, 00:25:01,    166,    0.0,   -4.0,   0.00,   0.00, 1016.8,   85.3, -999.0
17-12-2022, 00:25:11,    166,    0.0,   -4.1,   0.00,   0.00, 1016.8,   85.5, -999.0
17-12-2022, 00:25:21,    166,    0.0,   -4.0,   0.00,   0.00, 1016.8,   85.6, -999.0
17-12-2022, 00:25:31,    166,    0.0,   -4.1,   0.00,   0.00, 1016.8,   85.6, -999.0
17-12-2022, 00:25:41,    166,    0.0,   -4.0,   0.00,   0.00, 1016.8,   85.5, -999.0
17-12-2022, 00:25:51,    166,    0.0,   -4.0,   0.00,   0.00, 1016.8,   85.3, -999.0
17-12-2022, 00:26:01,    166,    0.0,   -4.0,   0.00,   0.00, 1016.8,   85.4, -999.0
17-12-2022, 00:26:11,    166,    0.0,   -4.0,   0.00,   0.00, 1016.8,   85.3, -999.0
17-12-2022, 00:26:21,    166,    0.0,   -4.2,   0.00,   0.00, 1016.8,   85.3, -999.0
17-12-2022, 00:26:31,    166,    0.0,   -4.0,   0.00,   0.00, 1016.8,   85.3, -999.0
17-12-2022, 00:26:41,    166,    0.0,   -4.0,   0.00,   0.00, 1016.8,   85.3, -999.0
17-12-2022, 00:26:51,    166,    0.0,   -4.1,   0.00,   0.00, 1016.8,   85.2, -999.0
17-12-2022, 00:27:01,    167,    0.0,   -4.1,   0.00,   0.00, 1016.8,   85.2, -999.0
17-12-2022, 00:27:11,    166,    0.0,   -4.1,   0.00,   0.00, 1016.7,   85.3, -999.0
17-12-2022, 00:27:21,    166,    0.0,   -4.1,   0.00,   0.00, 1016.7,   85.3, -999.0
17-12-2022, 00:27:31,    166,    0.0,   -4.0,   0.00,   0.00, 1016.8,   85.4, -999.0
17-12-2022, 00:27:41,    166,    0.0,   -4.1,   0.00,   0.00, 1016.8,   85.4, -999.0
17-12-2022, 00:27:51,    166,    0.0,   -4.0,   0.00,   0.00, 1016.7,   85.5, -999.0
17-12-2022, 00:28:01,    166,    0.0,   -4.1,   0.00,   0.00, 1016.7,   85.4, -999.0
17-12-2022, 00:28:11,    166,    0.0,   -4.0,   0.00,   0.00, 1016.8,   85.5, -999.0
17-12-2022, 00:28:21,    166,    0.0,   -4.0,   0.00,   0.00, 1016.7,   85.5, -999.0
17-12-2022, 00:28:31,    166,    0.0,   -4.1,   0.00,   0.00, 1016.7,   85.6, -999.0
17-12-2022, 00:28:41,    166,    0.0,   -4.0,   0.00,   0.00, 1016.8,   85.7, -999.0
17-12-2022, 00:28:51,    166,    0.0,   -4.1,   0.00,   0.00, 1016.7,   85.8, -999.0
17-12-2022, 00:29:01,    166,    0.0,   -4.0,   0.00,   0.00, 1016.7,   85.7, -999.0
17-12-2022, 00:29:11,    166,    0.0,   -4.0,   0.00,   0.00, 1016.7,   85.5, -999.0
17-12-2022, 00:29:21,    166,    0.0,   -4.0,   0.00,   0.00, 1016.7,   85.5, -999.0
17-12-2022, 00:29:31,    166,    0.0,   -4.0,   0.00,   0.00, 1016.8,   85.6, -999.0
17-12-2022, 00:29:41,    165,    0.1,   -4.0,   0.00,   0.00, 1016.8,   85.6, -999.0
17-12-2022, 00:29:51,    165,    0.0,   -4.0,   0.00,   0.00, 1016.8,   85.5, -999.0
17-12-2022, 00:30:01,    167,    0.0,   -4.0,   0.00,   0.00, 1016.8,   85.6, -999.0
17-12-2022, 00:30:11,    167,    0.0,   -4.0,   0.00,   0.00, 1016.7,   85.4, -999.0
17-12-2022, 00:30:21,    167,    0.0,   -4.0,   0.00,   0.00, 1016.7,   85.3, -999.0
17-12-2022, 00:30:31,    167,    0.1,   -4.1,   0.00,   0.00, 1016.8,   85.5, -999.0
17-12-2022, 00:30:40,    165,    0.1,   -4.0,   0.00,   0.00, 1016.8,   85.6, -999.0
17-12-2022, 00:30:51,    164,    0.0,   -4.1,   0.00,   0.00, 1016.7,   85.7, -999.0
17-12-2022, 00:31:01,    164,    0.0,   -4.0,   0.00,   0.00, 1016.7,   85.7, -999.0
17-12-2022, 00:31:10,    165,    0.0,   -4.0,   0.00,   0.00, 1016.7,   85.7, -999.0
17-12-2022, 00:31:20,    165,    0.0,   -4.0,   0.00,   0.00, 1016.7,   85.6, -999.0
17-12-2022, 00:31:31,    165,    0.0,   -4.1,   0.00,   0.00, 1016.7,   85.4, -999.0
17-12-2022, 00:31:41,    165,    0.0,   -4.0,   0.00,   0.00, 1016.7,   85.4, -999.0
17-12-2022, 00:31:50,    164,    0.0,   -3.9,   0.00,   0.00, 1016.7,   85.3, -999.0
17-12-2022, 00:32:00,    165,    0.0,   -4.0,   0.00,   0.00, 1016.7,   85.2, -999.0
17-12-2022, 00:32:11,    165,    0.0,   -4.0,   0.00,   0.00, 1016.7,   85.2, -999.0
17-12-2022, 00:32:20,    165,    0.0,   -4.0,   0.00,   0.00, 1016.7,   85.1, -999.0
17-12-2022, 00:32:30,    165,    0.0,   -4.0,   0.00,   0.00, 1016.7,   85.2, -999.0
17-12-2022, 00:32:40,    165,    0.0,   -4.0,   0.00,   0.00, 1016.7,   85.3, -999.0
17-12-2022, 00:32:50,    165,    0.0,   -4.0,   0.00,   0.00, 1016.7,   85.3, -999.0
17-12-2022, 00:33:00,    165,    0.0,   -3.9,   0.00,   0.00, 1016.7,   85.5, -999.0
17-12-2022, 00:33:10,    165,    0.0,   -4.0,   0.00,   0.00, 1016.7,   85.4, -999.0
17-12-2022, 00:33:21,    165,    0.0,   -4.0,   0.00,   0.00, 1016.7,   85.5, -999.0
17-12-2022, 00:33:30,    164,    0.0,   -4.0,   0.00,   0.00, 1016.7,   85.3, -999.0
17-12-2022, 00:33:40,    165,    0.0,   -4.2,   0.00,   0.00, 1016.7,   85.4, -999.0
17-12-2022, 00:33:50,    165,    0.0,   -4.0,   0.00,   0.00, 1016.7,   85.4, -999.0
17-12-2022, 00:34:00,    165,    0.0,   -4.0,   0.00,   0.00, 1016.7,   85.4, -999.0
17-12-2022, 00:34:10,    165,    0.0,   -4.2,   0.00,   0.00, 1016.7,   85.4, -999.0
17-12-2022, 00:34:20,    165,    0.0,   -4.1,   0.00,   0.00, 1016.7,   85.5, -999.0
17-12-2022, 00:34:30,    167,    0.0,   -4.0,   0.00,   0.00, 1016.7,   85.4, -999.0
17-12-2022, 00:34:40,    167,    0.0,   -4.0,   0.00,   0.00, 1016.7,   85.4, -999.0
17-12-2022, 00:34:50,    166,    0.0,   -3.9,   0.00,   0.00, 1016.7,   85.3, -999.0
17-12-2022, 00:35:00,    166,    0.0,   -4.0,   0.00,   0.00, 1016.7,   85.3, -999.0
17-12-2022, 00:35:10,    167,    0.0,   -4.0,   0.00,   0.00, 1016.7,   85.3, -999.0
17-12-2022, 00:35:20,    166,    0.0,   -4.0,   0.00,   0.00, 1016.7,   85.3, -999.0
17-12-2022, 00:35:30,    166,    0.0,   -4.1,   0.00,   0.00, 1016.7,   85.2, -999.0
17-12-2022, 00:35:40,    166,    0.0,   -4.0,   0.00,   0.00, 1016.7,   85.2, -999.0
17-12-2022, 00:35:50,    166,    0.0,   -4.1,   0.00,   0.00, 1016.7,   85.1, -999.0
17-12-2022, 00:36:00,    166,    0.0,   -4.0,   0.00,   0.00, 1016.7,   85.0, -999.0
17-12-2022, 00:36:10,    167,    0.0,   -4.0,   0.00,   0.00, 1016.7,   84.9, -999.0
17-12-2022, 00:36:20,    166,    0.0,   -4.0,   0.00,   0.00, 1016.7,   84.9, -999.0
17-12-2022, 00:36:30,    166,    0.0,   -4.0,   0.00,   0.00, 1016.7,   84.9, -999.0
17-12-2022, 00:36:40,    167,    0.0,   -4.0,   0.00,   0.00, 1016.7,   85.0, -999.0
17-12-2022, 00:36:50,    167,    0.0,   -4.0,   0.00,   0.00, 1016.7,   85.0, -999.0
17-12-2022, 00:37:00,    166,    0.0,   -4.0,   0.00,   0.00, 1016.7,   85.0, -999.0
17-12-2022, 00:37:10,    166,    0.0,   -4.0,   0.00,   0.00, 1016.7,   85.1, -999.0
17-12-2022, 00:37:20,    166,    0.0,   -4.0,   0.00,   0.00, 1016.7,   84.9, -999.0
17-12-2022, 00:37:30,    167,    0.0,   -3.9,   0.00,   0.00, 1016.7,   84.9, -999.0
17-12-2022, 00:37:40,    166,    0.0,   -4.0,   0.00,   0.00, 1016.7,   84.8, -999.0
17-12-2022, 00:37:50,    167,    0.0,   -4.1,   0.00,   0.00, 1016.7,   84.8, -999.0
17-12-2022, 00:38:00,    166,    0.0,   -4.0,   0.00,   0.00, 1016.7,   84.8, -999.0
17-12-2022, 00:38:10,    167,    0.0,   -4.0,   0.00,   0.00, 1016.7,   84.8, -999.0
17-12-2022, 00:38:19,    167,    0.0,   -4.0,   0.00,   0.00, 1016.7,   84.9, -999.0
17-12-2022, 00:38:30,    166,    0.0,   -4.0,   0.00,   0.00, 1016.7,   85.0, -999.0
17-12-2022, 00:38:40,    167,    0.0,   -3.9,   0.00,   0.00, 1016.7,   85.0, -999.0
17-12-2022, 00:38:50,    167,    0.0,   -4.0,   0.00,   0.00, 1016.7,   84.9, -999.0
17-12-2022, 00:38:59,    167,    0.0,   -4.0,   0.00,   0.00, 1016.7,   85.0, -999.0
17-12-2022, 00:39:12,    166,    0.0,   -4.0,   0.00,   0.00, 1016.7,   85.0, -999.0
17-12-2022, 00:39:20,    167,    0.0,   -4.2,   0.00,   0.00, 1016.7,   85.0, -999.0
17-12-2022, 00:39:29,    167,    0.0,   -4.1,   0.00,   0.00, 1016.7,   85.0, -999.0
17-12-2022, 00:39:39,    166,    0.0,   -4.0,   0.00,   0.00, 1016.7,   85.1, -999.0
17-12-2022, 00:39:50,    167,    0.0,   -4.0,   0.00,   0.00, 1016.7,   85.1, -999.0
17-12-2022, 00:39:59,    166,    0.2,   -4.0,   0.00,   0.00, 1016.7,   85.2, -999.0
17-12-2022, 00:40:09,    167,    0.0,   -4.1,   0.00,   0.00, 1016.7,   85.3, -999.0
17-12-2022, 00:40:19,    167,    0.0,   -4.1,   0.00,   0.00, 1016.7,   85.2, -999.0
17-12-2022, 00:40:30,    168,    0.0,   -4.1,   0.00,   0.00, 1016.8,   85.4, -999.0
17-12-2022, 00:40:39,    174,    0.0,   -4.1,   0.00,   0.00, 1016.7,   85.3, -999.0
17-12-2022, 00:40:49,    175,    0.0,   -4.0,   0.00,   0.00, 1016.7,   85.3, -999.0
17-12-2022, 00:40:59,    175,    0.0,   -4.1,   0.00,   0.00, 1016.7,   85.5, -999.0
17-12-2022, 00:41:09,    182,    0.0,   -4.0,   0.00,   0.00, 1016.8,   85.7, -999.0
17-12-2022, 00:41:19,    182,    0.1,   -4.0,   0.00,   0.00, 1016.8,   85.9, -999.0
17-12-2022, 00:41:29,    181,    0.0,   -4.0,   0.00,   0.00, 1016.7,   85.7, -999.0
17-12-2022, 00:41:39,    182,    0.0,   -4.0,   0.00,   0.00, 1016.7,   85.8, -999.0
17-12-2022, 00:41:49,    181,    0.0,   -4.0,   0.00,   0.00, 1016.7,   85.9, -999.0
17-12-2022, 00:41:59,    182,    0.0,   -4.1,   0.00,   0.00, 1016.7,   86.1, -999.0
17-12-2022, 00:42:09,    182,    0.0,   -4.0,   0.00,   0.00, 1016.7,   86.2, -999.0
17-12-2022, 00:42:19,    181,    0.0,   -4.0,   0.00,   0.00, 1016.7,   85.9, -999.0
17-12-2022, 00:42:29,    182,    0.0,   -4.0,   0.00,   0.00, 1016.7,   85.7, -999.0
17-12-2022, 00:42:39,    182,    0.0,   -4.0,   0.00,   0.00, 1016.7,   85.4, -999.0
17-12-2022, 00:42:49,    182,    0.0,   -4.1,   0.00,   0.00, 1016.7,   85.4, -999.0
17-12-2022, 00:42:59,    182,    0.0,   -4.0,   0.00,   0.00, 1016.7,   85.2, -999.0
17-12-2022, 00:43:09,    182,    0.0,   -4.0,   0.00,   0.00, 1016.7,   85.1, -999.0
17-12-2022, 00:43:19,    182,    0.0,   -3.9,   0.00,   0.00, 1016.7,   85.0, -999.0
17-12-2022, 00:43:29,    182,    0.0,   -3.9,   0.00,   0.00, 1016.7,   84.9, -999.0
17-12-2022, 00:43:39,    182,    0.1,   -3.8,   0.00,   0.00, 1016.8,   85.0, -999.0
17-12-2022, 00:43:49,    182,    0.2,   -3.9,   0.00,   0.00, 1016.8,   84.8, -999.0
17-12-2022, 00:43:59,    182,    0.0,   -3.8,   0.00,   0.00, 1016.7,   84.4, -999.0
17-12-2022, 00:44:09,    182,    0.1,   -3.9,   0.00,   0.00, 1016.7,   84.3, -999.0
17-12-2022, 00:44:19,    182,    0.0,   -3.8,   0.00,   0.00, 1016.7,   84.2, -999.0
17-12-2022, 00:44:29,    182,    0.0,   -3.9,   0.00,   0.00, 1016.7,   84.1, -999.0
17-12-2022, 00:44:39,    181,    0.0,   -3.8,   0.00,   0.00, 1016.7,   84.0, -999.0
17-12-2022, 00:44:49,    182,    0.0,   -4.0,   0.00,   0.00, 1016.7,   83.9, -999.0
17-12-2022, 00:44:59,    182,    0.0,   -4.0,   0.00,   0.00, 1016.7,   83.8, -999.0
17-12-2022, 00:45:09,    181,    0.0,   -4.0,   0.00,   0.00, 1016.7,   83.9, -999.0
17-12-2022, 00:45:19,    182,    0.0,   -4.0,   0.00,   0.00, 1016.7,   83.9, -999.0
17-12-2022, 00:45:29,    182,    0.0,   -3.9,   0.00,   0.00, 1016.7,   83.9, -999.0
17-12-2022, 00:45:39,    181,    0.0,   -3.9,   0.00,   0.00, 1016.7,   83.8, -999.0
17-12-2022, 00:45:49,    181,    0.0,   -3.9,   0.00,   0.00, 1016.7,   83.8, -999.0
17-12-2022, 00:45:59,    182,    0.0,   -3.9,   0.00,   0.00, 1016.7,   83.9, -999.0
17-12-2022, 00:46:08,    181,    0.0,   -4.0,   0.00,   0.00, 1016.7,   83.8, -999.0
17-12-2022, 00:46:19,    182,    0.0,   -4.0,   0.00,   0.00, 1016.7,   83.8, -999.0
17-12-2022, 00:46:29,    182,    0.0,   -4.0,   0.00,   0.00, 1016.7,   83.7, -999.0
17-12-2022, 00:46:38,    181,    0.0,   -4.1,   0.00,   0.00, 1016.7,   83.6, -999.0
17-12-2022, 00:46:48,    182,    0.0,   -4.0,   0.00,   0.00, 1016.6,   83.5, -999.0